Wind_Speed
38 39 39 40 40 41 41 41 42 42 41 41 41 41 40 40 39 39 39 37 37 36 36 35 34 35 35 36 42 50 55 57 57 57 57 56 55 54 53 53 53 53 51 50 49 48 47 46 45 43 41 40 38 37 35 34 32 29 27 25 23 22 22 21 20 18 19 19 16 15 15 12 8 9 11 12 12 12 9 8 8 9 11 11 12 13 16 20
36 38 39 41 41 42 42 42 42 43 43 43 43 42 42 42 41 41 41 40 39 38 39 38 37 37 38 38 41 48 55 58 59 59 59 58 56 55 54 53 53 53 53 51 50 49 48 47 46 45 43 42 40 39 37 35 34 31 30 27 25 23 23 22 21 19 20 21 18 17 18 14 9 7 9 12 13 12 9 8 8 11 12 10 10 12 14 19
34 36 37 39 41 42 43 44 44 44 44 44 44 44 44 44 43 43 43 43 42 41 41 41 40 39 40 40 41 46 54 58 60 60 60 60 59 57 55 55 54 54 54 53 51 50 50 49 48 47 45 43 42 40 39 37 35 33 32 30 27 25 24 23 23 21 21 21 19 20 19 16 13 9 13 15 13 12 10 8 8 11 10 9 10 10 13 19
31 33 36 38 39 41 42 44 45 45 46 45 46 46 46 46 45 45 45 45 45 44 43 43 43 42 42 43 43 45 52 58 61 61 61 61 61 59 57 57 55 55 55 55 53 52 51 50 49 48 47 46 44 42 40 39 37 36 34 33 31 28 26 25 25 24 24 23 20 21 20 18 16 15 18 17 13 11 10 9 9 9 8 10 10 10 14 18
32 32 34 36 38 40 41 43 45 46 47 47 47 47 48 48 47 47 47 47 47 47 46 45 45 45 44 45 46 46 50 57 61 62 63 63 63 61 60 59 57 56 56 56 55 54 52 51 50 50 49 47 45 43 42 41 39 38 36 35 35 33 30 27 27 26 26 25 23 22 20 19 18 19 20 17 13 11 9 10 9 7 7 9 10 12 15 18
37 36 35 35 37 39 41 42 44 45 47 49 49 49 50 50 50 49 49 50 50 49 48 48 48 48 47 47 48 49 50 55 61 63 64 64 64 63 62 61 60 57 56 57 56 55 54 52 51 51 50 48 46 45 44 42 41 40 39 38 37 36 34 30 28 27 27 26 25 24 22 19 18 20 19 17 15 13 11 11 9 8 9 11 12 14 16 18
41 40 39 39 38 38 40 42 44 45 46 48 50 51 52 52 52 51 51 52 52 52 51 51 50 50 51 49 50 51 51 54 59 63 65 66 66 65 64 64 62 60 58 58 58 57 55 53 53 52 51 49 47 47 46 44 43 42 41 40 39 38 37 34 31 29 28 27 26 26 26 24 22 20 19 18 18 16 15 13 11 11 12 14 15 16 16 18
44 44 44 43 42 41 41 42 44 45 47 48 49 52 54 54 54 54 54 53 54 54 54 54 53 53 53 53 52 52 54 55 58 63 66 67 67 67 66 66 65 63 60 60 59 58 56 55 54 54 52 50 48 48 48 46 45 44 43 42 41 40 38 36 34 31 30 29 28 27 27 28 27 25 23 22 21 21 19 17 15 15 16 16 16 17 17 18
47 47 47 47 47 45 44 44 44 45 47 49 50 51 54 56 56 57 56 56 56 56 56 56 56 56 56 56 55 54 55 57 58 61 66 68 68 68 68 68 67 65 63 62 61 60 58 56 56 55 53 51 50 50 50 48 47 46 45 44 43 42 40 38 36 34 31 30 29 28 28 28 29 29 28 27 25 24 23 20 19 18 18 18 18 17 18 18
49 49 50 51 51 50 47 46 46 47 47 49 51 53 54 57 58 59 58 58 58 58 59 59 59 59 58 58 58 57 57 59 60 61 65 68 69 70 70 70 69 68 66 64 63 61 59 57 56 56 55 52 51 52 52 51 50 48 46 45 44 43 41 40 38 35 33 32 30 30 29 29 29 28 28 27 27 25 24 22 20 20 19 19 19 18 18 18
51 52 52 53 53 53 51 49 48 49 50 51 52 54 56 58 59 60 60 60 61 61 61 61 62 62 61 61 61 60 59 60 62 62 64 68 70 71 71 71 71 70 69 67 65 62 60 58 57 57 56 54 54 54 53 53 52 50 48 47 46 44 43 41 40 38 35 34 32 31 31 31 30 29 28 28 27 26 24 23 22 21 20 20 20 19 19 18
54 54 55 55 55 54 53 52 51 52 53 54 55 56 58 59 60 60 61 62 63 64 64 64 64 64 64 63 63 63 62 62 63 64 65 67 69 71 72 72 72 71 71 69 67 64 62 61 60 59 58 56 56 55 55 55 54 52 50 48 47 46 44 43 41 40 38 36 35 34 33 33 32 31 30 29 28 27 26 25 24 23 22 22 21 21 20 19
55 56 56 56 55 55 55 55 54 54 56 58 58 58 58 60 62 62 62 63 64 66 66 66 67 67 67 66 66 66 66 65 64 65 66 67 69 71 73 74 74 73 72 71 69 67 66 64 63 61 60 57 56 56 56 57 56 54 52 50 49 47 46 45 43 42 40 39 37 36 35 35 34 33 32 31 30 28 27 27 26 25 24 23 23 22 21 20
55 56 56 55 55 56 56 56 57 57 59 61 61 61 60 61 63 64 64 64 66 67 68 69 69 69 69 69 69 69 68 67 66 66 67 68 69 71 73 75 75 74 73 72 71 70 69 67 66 64 62 59 58 58 58 57 57 56 55 52 50 49 48 46 45 44 42 40 39 37 36 36 35 35 34 32 31 30 29 28 28 27 26 25 24 24 22 20
52 53 53 53 54 55 57 58 59 60 62 63 63 64 64 63 64 65 66 67 67 68 70 71 71 71 71 71 72 72 70 70 69 68 68 69 70 71 72 74 76 76 75 73 72 72 72 70 69 67 64 62 61 61 59 59 59 58 57 55 53 51 49 48 46 45 44 42 40 39 38 37 36 36 35 34 33 33 32 31 30 29 28 27 26 25 23 21
47 48 50 51 53 55 57 59 60 62 64 64 65 66 66 66 66 66 68 69 69 70 71 72 73 74 74 74 75 74 73 72 72 72 71 70 71 72 72 73 75 77 76 74 73 74 74 73 71 69 67 65 64 63 61 60 60 59 58 57 55 53 51 50 49 48 46 44 43 41 40 39 38 38 37 36 36 35 34 33 32 31 30 29 28 27 25 22
41 43 46 48 50 53 56 58 61 64 65 66 66 67 68 68 69 69 69 71 72 72 73 73 74 75 76 76 77 76 75 74 74 75 74 72 72 73 73 74 75 77 78 76 74 74 75 75 73 72 70 69 67 66 63 62 62 61 60 58 56 54 52 52 51 50 48 47 45 43 42 41 40 40 39 38 38 37 36 34 34 33 32 31 30 28 26 24
37 39 41 44 47 50 53 56 59 63 66 67 68 69 70 70 71 72 72 72 73 74 74 75 76 77 77 78 79 78 78 77 77 77 77 75 74 74 75 75 75 76 77 78 76 75 75 76 75 74 72 71 70 69 67 65 64 63 61 59 57 55 54 54 53 52 50 49 47 45 44 43 42 41 41 40 39 38 37 36 35 34 33 32 31 30 28 26
35 37 39 42 45 48 51 53 56 61 64 67 69 70 71 72 73 74 74 74 75 76 76 76 77 77 78 79 80 81 81 80 80 80 79 78 77 76 76 76 77 76 77 78 78 76 76 76 75 75 75 74 73 72 70 68 66 64 62 61 59 57 56 55 55 53 52 51 49 48 46 44 43 42 42 41 40 40 39 37 36 35 35 34 33 32 30 27
39 40 42 45 47 49 51 53 56 60 63 66 69 70 72 73 74 75 76 77 77 77 78 78 79 79 79 80 81 83 83 83 82 82 81 81 80 78 77 77 78 78 77 77 78 78 78 76 75 77 78 77 75 74 72 69 67 66 65 63 62 60 58 58 56 54 53 52 51 49 47 46 45 44 43 43 42 41 40 39 38 38 37 36 35 33 31 29
44 45 47 49 50 52 54 56 60 62 65 68 70 71 73 74 76 77 78 79 79 79 80 81 81 81 81 81 82 84 85 85 85 84 84 83 82 81 79 78 78 79 79 78 78 79 78 77 77 78 78 77 76 75 73 71 69 68 67 66 65 63 61 60 59 57 55 53 52 50 49 48 47 46 45 45 44 43 42 42 41 40 39 37 36 34 32 30
48 49 50 50 52 54 56 58 62 65 68 70 72 74 75 77 78 79 80 81 81 82 82 83 84 83 82 82 83 84 86 86 87 86 86 85 84 84 83 81 80 80 80 80 79 79 79 79 79 79 78 76 76 75 74 72 71 70 69 68 67 66 64 63 62 60 58 55 53 53 52 51 50 49 48 47 46 46 45 45 44 42 40 39 37 35 33 31
53 53 53 54 56 57 58 60 60 63 66 69 72 75 77 79 81 81 81 82 84 84 85 85 85 84 84 83 84 85 86 87 88 89 88 88 87 86 85 84 82 81 81 81 81 80 80 81 81 80 78 77 76 76 75 73 71 70 70 70 71 69 67 66 65 63 60 57 57 56 55 54 53 52 51 50 49 48 48 47 45 44 42 41 39 36 35 33
57 57 57 58 59 59 58 58 57 58 60 63 67 72 76 79 82 83 84 85 86 87 87 86 85 85 85 85 86 86 87 88 89 90 90 90 89 88 87 86 84 82 82 82 83 83 83 83 82 81 80 77 76 76 75 74 72 71 71 71 72 72 70 68 67 65 62 61 60 59 58 57 56 55 54 53 52 51 50 49 47 46 44 42 40 38 36 34
60 60 61 61 59 55 53 51 51 52 54 57 60 65 70 76 80 83 85 87 88 89 89 88 87 86 87 88 88 88 88 88 90 91 92 92 91 91 89 88 86 84 83 83 84 85 85 84 83 82 80 78 77 77 76 74 73 72 72 72 73 73 71 69 69 67 65 64 63 62 61 60 58 57 56 56 55 53 52 51 50 48 46 44 41 39 37 36
63 63 63 60 55 50 46 44 44 45 47 50 54 58 64 70 76 80 83 86 89 90 90 89 89 89 89 90 90 89 89 89 90 91 92 93 93 92 91 90 88 87 85 85 85 85 86 85 84 82 80 79 78 77 76 75 74 73 73 73 73 73 72 70 70 69 67 66 65 64 63 62 60 59 58 58 57 56 55 54 52 49 47 45 43 41 39 37
65 66 64 59 52 47 42 39 38 39 41 44 47 52 57 62 69 75 80 85 88 89 90 90 91 91 91 91 91 90 90 90 90 91 92 93 94 94 93 92 91 89 88 86 85 86 87 87 86 84 82 80 79 78 77 76 75 75 76 75 74 73 72 71 70 69 68 66 65 64 64 63 61 60 59 59 58 58 57 54 52 50 48 46 44 42 40 38
67 67 65 59 51 45 40 36 34 34 35 38 41 45 50 55 61 68 75 82 86 87 89 91 92 92 92 92 92 92 92 91 91 91 91 93 94 95 95 95 93 91 90 88 87 87 88 89 88 86 84 82 81 80 79 78 76 77 78 76 74 74 73 71 69 68 68 66 65 65 65 63 62 61 60 59 58 58 56 54 52 50 48 47 45 43 41 39
68 68 66 61 53 46 39 34 32 30 30 32 35 39 44 49 54 60 68 76 81 85 88 89 91 91 92 93 93 93 93 92 92 91 91 92 94 95 96 96 95 93 92 90 89 89 90 90 89 87 86 85 84 83 82 80 79 79 78 76 75 74 72 70 68 68 67 66 64 64 65 64 62 61 60 59 58 57 56 54 52 51 49 47 44 42 39 37
69 69 68 63 56 48 41 34 30 27 26 27 30 33 38 43 48 54 60 68 74 80 86 89 90 91 91 93 93 92 92 93 92 92 91 92 93 94 96 96 96 95 94 93 91 91 92 91 89 87 86 87 87 86 83 81 81 81 79 77 75 73 72 71 69 67 66 65 64 63 63 63 61 60 60 59 58 57 55 54 53 52 50 47 45 41 38 34
71 70 68 63 57 49 41 34 28 24 22 22 25 29 33 37 42 48 54 60 65 72 80 86 89 90 91 91 92 92 92 93 93 93 92 92 92 94 95 96 96 96 96 95 94 94 94 92 89 87 87 89 89 88 85 84 83 82 79 77 75 73 72 71 69 67 65 65 65 63 63 62 60 59 59 58 57 55 54 53 53 52 50 48 46 44 41 37
71 71 68 63 57 49 41 33 27 23 20 19 21 24 28 33 37 42 47 52 58 65 73 80 86 89 90 91 91 91 92 93 94 93 93 92 92 93 93 95 96 96 97 97 96 96 95 92 89 88 89 91 90 89 87 86 85 84 81 77 75 74 72 70 68 67 65 65 65 63 62 60 58 57 58 57 56 54 53 52 52 51 49 48 46 45 43 40
72 72 70 65 58 49 41 33 27 22 19 17 17 20 24 28 32 37 41 46 52 58 65 72 78 84 88 90 91 91 91 93 94 94 93 93 93 92 92 93 95 96 98 98 98 97 96 93 91 89 90 91 90 89 88 88 87 86 82 79 76 74 72 70 67 66 66 66 65 64 63 60 58 57 56 56 55 53 52 51 51 50 49 47 45 44 42 39
72 73 72 68 60 50 42 35 28 23 19 16 15 16 20 24 28 31 35 40 46 51 57 64 70 76 83 88 91 92 92 92 92 93 94 94 94 93 93 92 93 96 98 98 98 99 98 95 93 91 90 91 90 90 89 89 89 88 85 82 79 77 75 72 69 67 67 68 67 65 63 61 59 57 56 55 54 53 51 50 49 48 47 46 44 42 41 39
71 73 73 69 61 52 44 36 29 24 19 16 14 13 15 20 23 26 30 35 40 45 51 57 63 69 75 81 87 90 92 93 92 92 93 94 94 94 94 93 93 95 97 98 98 99 99 97 95 93 92 91 91 90 91 91 91 90 87 85 82 80 78 75 73 72 72 73 71 69 66 63 61 59 57 55 54 53 51 50 48 47 46 44 43 42 40 38
70 72 73 69 61 53 45 37 30 24 19 16 13 11 12 16 19 23 26 31 35 40 46 52 57 63 68 74 80 85 89 92 92 93 93 93 94 95 95 95 95 95 95 96 98 99 99 99 97 95 93 93 92 91 92 92 92 91 88 86 84 83 81 79 77 76 76 76 74 72 69 66 64 62 60 57 55 53 52 50 49 47 46 44 42 41 40 37
70 73 73 69 62 53 46 39 32 25 20 16 12 10 10 12 17 20 23 27 32 36 41 47 52 57 62 67 73 78 83 87 90 92 93 94 94 95 95 96 96 96 95 95 96 98 99 99 99 97 95 94 93 92 93 93 93 92 89 88 87 87 85 82 80 78 78 76 75 72 70 68 67 64 62 60 57 55 54 52 50 48 46 44 42 41 40 38
70 73 74 71 63 54 46 40 33 27 22 17 12 10 8 10 14 18 22 25 29 33 37 43 48 53 58 63 68 72 77 81 85 88 91 93 94 95 95 96 97 97 96 95 95 97 98 99 100 99 98 96 95 94 94 94 93 92 90 90 89 88 86 85 83 80 79 77 75 73 71 69 67 65 63 61 59 57 56 53 51 49 47 45 44 43 42 40
68 72 74 73 66 56 47 40 35 29 24 19 13 10 8 9 12 16 20 24 27 30 34 39 44 49 54 58 63 68 72 77 81 84 88 90 92 94 95 96 97 98 97 96 95 96 98 100 100 100 100 99 97 96 95 94 93 92 91 90 90 89 87 86 85 83 82 80 78 75 72 70 68 66 65 63 61 60 58 56 54 52 49 47 46 45 43 41
66 70 73 73 68 59 48 40 34 29 24 20 14 10 8 8 11 15 18 22 25 29 32 36 40 45 50 54 58 63 67 72 76 81 84 87 90 92 94 96 97 98 98 97 96 96 97 99 100 101 101 101 100 98 97 95 94 93 92 91 90 89 88 87 86 86 85 83 80 78 75 72 70 69 67 64 63 62 60 58 56 54 52 50 49 47 45 43
64 68 71 71 68 61 51 41 34 28 24 20 16 11 8 8 10 14 17 20 24 27 31 35 38 42 46 50 53 57 62 66 71 76 80 84 88 91 93 95 96 98 98 97 97 96 98 99 101 102 102 102 102 100 98 97 95 94 92 91 90 90 89 88 87 86 85 84 82 80 78 75 73 72 70 68 66 65 63 62 60 57 55 53 52 50 48 45
63 66 69 70 68 61 51 43 37 30 24 20 17 13 9 8 10 13 16 19 23 26 30 33 37 40 43 46 49 53 57 61 66 70 75 80 84 88 91 94 96 97 98 98 98 97 98 99 100 101 102 103 103 102 100 99 97 95 94 92 91 90 90 89 88 87 86 85 84 83 81 79 77 74 73 72 70 68 66 65 63 61 59 56 55 53 50 48
63 66 68 69 68 61 51 43 38 33 26 21 17 14 11 8 9 12 15 19 22 25 29 32 35 39 42 45 47 50 53 57 61 65 70 75 79 84 88 92 94 96 98 98 98 98 99 99 100 101 102 103 103 103 102 101 98 97 95 94 92 91 90 89 89 88 88 87 86 85 83 81 79 77 75 74 73 71 69 68 66 64 62 61 58 56 53 51
62 65 68 69 67 62 54 43 36 33 28 23 18 15 13 9 9 11 14 18 22 25 28 31 35 38 41 44 47 49 52 55 59 62 66 70 74 78 82 87 91 94 96 98 98 98 99 100 101 101 101 102 103 103 103 102 100 98 97 95 94 93 91 90 90 90 89 89 87 86 85 83 82 80 78 77 76 74 72 70 69 67 66 64 62 60 57 54
61 64 67 68 67 63 56 46 37 33 29 25 19 15 13 12 10 10 13 17 21 24 27 31 34 37 40 43 46 48 51 54 57 60 63 67 70 73 77 81 85 89 92 95 97 97 98 100 101 101 101 102 102 102 102 102 101 100 99 97 96 94 93 92 91 91 90 89 88 87 86 85 85 83 81 80 79 77 75 73 72 71 69 67 66 64 61 58
60 63 66 68 68 65 59 50 41 35 31 28 22 17 13 12 11 11 12 15 19 23 26 29 33 36 39 43 45 48 50 53 56 59 62 65 68 71 74 77 80 83 87 90 93 95 96 98 99 100 101 101 102 102 103 103 103 102 101 100 98 96 95 93 92 92 91 90 89 88 87 87 87 86 85 83 82 80 79 78 76 74 73 71 69 68 65 62
58 61 64 67 68 66 61 54 44 36 33 30 26 20 14 11 11 11 12 15 17 21 25 28 32 35 38 41 45 47 50 52 54 57 60 64 67 70 73 76 78 81 83 86 88 90 93 95 97 98 99 100 100 101 102 102 103 103 103 102 100 99 97 95 94 93 92 91 90 89 89 88 88 88 87 86 84 83 82 81 80 78 76 74 72 71 68 66
56 59 62 65 67 66 61 56 47 39 34 31 28 23 17 12 10 10 12 14 16 19 23 26 30 34 37 40 43 46 49 51 53 56 58 62 65 69 72 75 77 80 82 84 86 88 90 92 94 95 97 98 99 100 100 101 102 103 103 103 102 101 99 97 96 95 93 92 91 90 90 90 90 89 88 88 87 86 85 84 83 81 79 77 75 73 71 69
55 58 61 63 66 66 62 56 50 42 36 32 30 26 21 15 11 9 10 12 15 18 22 25 29 32 36 39 42 45 48 50 53 55 57 60 63 66 69 72 76 79 82 84 86 88 89 91 92 94 95 97 98 99 100 100 101 102 103 103 103 102 101 99 98 97 95 94 92 91 91 91 91 90 90 89 88 88 87 86 85 83 82 80 78 76 74 72
53 56 59 62 65 65 62 57 51 44 38 35 31 29 25 20 14 10 9 10 13 16 20 24 27 30 34 37 40 44 47 50 52 55 57 59 61 63 66 69 72 76 79 82 85 88 90 91 92 94 96 97 98 99 100 100 101 101 102 103 103 103 102 101 100 99 97 96 94 93 92 92 92 92 91 90 90 89 88 88 87 86 84 82 80 79 76 75
51 54 58 60 63 64 62 57 52 46 41 37 34 30 27 23 17 12 8 8 10 13 17 22 25 28 31 34 38 42 45 48 51 54 56 58 60 62 64 67 69 72 75 79 82 85 88 90 92 94 96 97 99 101 102 102 103 103 103 103 103 104 103 103 102 101 100 99 97 95 94 93 93 93 92 91 91 90 89 89 88 88 87 85 83 81 79 77
50 53 56 58 61 62 60 56 52 47 42 39 37 33 29 25 20 15 10 7 7 9 13 18 22 26 29 32 35 39 43 46 50 53 55 57 60 62 64 66 68 70 72 76 79 82 85 88 91 94 95 97 100 101 103 104 105 105 105 104 105 105 105 105 104 104 103 102 100 98 97 95 95 94 93 92 92 91 91 90 90 89 88 87 86 84 82 80
Wind_Direction
275 273 271 269 267 265 263 261 259 257 254 251 249 247 246 244 243 241 239 238 236 235 234 233 228 221 221 222 216 210 207 206 205 206 206 207 206 207 208 209 209 208 208 209 209 208 209 210 210 210 210 211 211 211 210 210 208 204 202 197 190 183 181 189 192 185 180 172 160 165 186 205 232 250 252 255 260 265 280 309 332 343 343 349 5 17 16 18
278 275 272 269 267 265 263 261 259 257 255 252 250 247 245 243 242 241 239 237 235 234 233 233 230 223 219 220 219 214 210 208 207 207 208 208 208 208 210 211 210 210 209 210 211 211 210 210 211 211 211 212 212 212 212 211 210 207 204 200 194 187 183 190 194 190 184 170 169 182 183 189 207 228 240 246 255 263 285 314 335 343 347 358 7 12 15 18
280 277 274 271 268 265 263 261 259 256 255 253 251 248 245 242 241 240 238 237 234 233 232 231 230 227 221 218 219 217 213 210 209 209 209 209 209 209 211 212 212 211 211 211 212 213 212 211 212 212 212 213 214 213 212 212 212 210 207 204 200 194 187 190 195 196 191 176 179 194 187 186 193 211 237 241 249 264 280 296 321 342 356 1 358 0 5 9
285 279 275 272 270 266 263 260 258 256 254 252 251 249 246 243 240 239 238 236 235 232 231 230 230 228 224 219 218 218 216 213 212 211 211 211 211 211 212 214 213 212 213 213 213 213 213 213 213 213 213 213 214 215 214 212 212 211 210 208 206 202 195 192 196 199 199 192 191 197 194 195 199 213 231 237 249 264 270 280 307 342 4 0 356 355 354 357
299 291 281 274 269 267 264 261 258 256 254 252 250 248 246 244 240 238 237 236 234 233 231 229 229 228 226 221 218 218 218 215 213 213 213 213 212 212 213 215 215 213 214 215 214 213 213 215 215 215 214 214 215 216 216 214 213 212 211 211 210 209 204 199 199 202 205 205 202 202 201 204 212 221 227 234 244 249 259 282 299 322 344 350 352 348 345 348
305 301 295 285 275 268 264 261 258 256 253 251 249 247 246 244 241 238 236 235 233 232 231 229 228 228 227 224 219 217 218 217 215 214 215 215 214 213 214 215 215 214 214 216 215 214 214 215 217 216 215 215 216 217 218 217 216 214 213 213 213 213 211 207 204 206 208 211 210 207 202 199 207 219 225 231 236 242 261 284 290 292 309 323 331 333 336 340
302 302 300 296 288 277 267 261 258 255 253 251 249 247 245 243 241 239 236 235 233 231 230 229 228 227 227 225 222 219 217 217 217 216 216 216 216 215 215 216 216 215 215 216 216 215 214 215 217 218 217 217 218 219 219 220 219 218 216 215 215 216 216 214 211 210 212 215 215 212 208 204 205 214 221 227 235 245 263 278 282 282 292 304 316 323 329 335
299 299 299 297 294 287 277 266 258 254 252 250 248 247 246 243 241 238 236 234 233 231 229 229 228 227 226 225 224 221 218 217 217 217 217 217 217 217 216 217 218 217 216 217 217 217 216 215 216 218 218 219 219 220 221 222 222 221 219 218 217 218 219 219 217 215 216 219 220 219 216 216 217 221 225 231 239 249 261 271 276 280 286 295 306 315 322 330
297 297 297 296 294 289 283 274 264 256 252 249 247 246 245 243 241 238 236 234 232 231 229 228 228 227 226 225 224 223 221 219 217 217 217 217 218 218 218 218 219 218 217 217 217 217 217 216 216 217 219 220 221 221 222 223 224 223 222 221 220 220 221 223 222 221 220 222 225 226 225 224 225 228 231 236 241 248 258 266 271 276 282 289 299 308 315 323
295 295 294 294 292 288 283 276 269 261 254 249 246 244 244 243 241 238 236 234 232 231 229 227 227 227 226 225 224 223 223 221 218 217 217 218 218 219 219 219 219 220 218 218 218 218 217 217 217 218 219 220 222 222 223 223 224 224 224 224 223 222 223 225 226 226 225 225 227 230 232 232 231 232 234 238 242 247 255 262 266 272 278 284 293 301 307 315
294 293 292 291 289 285 281 275 270 264 259 253 247 244 242 241 240 238 236 234 232 230 229 227 226 226 226 225 224 224 223 223 220 218 217 218 219 219 220 219 220 221 220 219 218 218 218 218 218 218 219 220 222 223 224 224 224 225 226 226 226 225 225 226 228 229 229 228 229 231 234 236 237 237 239 241 244 248 253 258 262 268 273 280 287 294 300 308
292 290 289 287 284 281 277 273 268 264 261 257 251 245 242 241 240 238 236 234 233 231 229 227 226 225 224 224 224 224 224 223 222 220 218 218 219 220 220 220 220 221 221 220 219 219 220 220 219 219 220 221 222 223 224 224 224 225 226 227 227 227 227 228 229 230 231 230 231 232 234 236 237 239 241 243 246 248 252 256 260 264 269 276 283 289 294 302
288 286 284 282 279 276 273 270 266 263 260 258 254 249 244 241 239 237 235 234 233 231 229 227 226 225 224 223 223 223 223 223 223 221 220 218 219 219 220 221 221 221 222 221 220 221 221 221 220 220 221 221 222 223 224 224 225 225 226 227 228 228 229 230 231 232 233 232 232 233 235 237 238 239 240 243 246 249 251 255 259 263 268 273 278 283 289 296
283 281 279 277 273 270 268 266 263 260 258 257 255 252 247 243 240 238 235 233 232 231 230 228 226 225 224 223 223 223 223 223 223 223 221 220 219 219 220 221 221 221 222 222 221 221 222 222 221 221 222 221 223 224 225 225 225 226 226 227 228 228 229 230 232 233 234 235 235 235 237 239 240 241 242 243 245 248 251 255 258 261 265 270 274 278 284 290
280 278 275 273 269 266 264 262 260 258 256 255 254 253 250 246 241 238 236 233 232 231 230 228 226 225 224 223 223 222 222 222 223 223 222 221 220 219 220 221 221 221 222 222 222 222 223 223 222 222 222 222 223 224 225 225 225 225 226 227 228 229 229 231 232 233 234 235 236 236 237 238 240 242 243 243 244 247 249 253 256 259 263 267 271 276 280 287
281 278 275 272 268 265 263 260 257 256 255 254 253 252 251 248 244 240 237 234 232 231 230 228 227 225 224 223 223 222 221 222 223 223 222 222 221 220 220 220 221 221 221 222 222 223 223 223 223 223 223 223 224 225 225 225 225 225 225 226 227 228 229 231 232 233 234 235 235 236 236 237 239 241 242 244 245 246 248 251 255 259 262 265 269 274 279 284
285 280 276 273 270 266 263 260 257 255 255 253 252 251 249 248 246 243 239 235 233 231 230 228 227 225 224 223 223 222 221 221 222 223 222 222 222 221 220 220 221 221 221 221 222 223 223 224 224 223 223 224 224 225 226 226 226 226 225 226 227 228 229 231 232 233 234 235 236 236 237 237 238 240 241 243 245 247 249 252 255 259 262 266 268 272 277 282
291 285 281 276 272 268 265 262 259 257 256 254 252 250 249 247 246 244 241 237 234 232 230 229 227 226 224 223 223 222 221 220 221 222 222 221 221 221 221 221 221 221 221 221 221 222 223 224 224 225 224 224 225 225 226 226 227 226 226 226 227 228 229 231 232 233 234 235 236 236 237 238 238 240 241 243 246 248 250 252 255 259 262 266 268 271 274 278
301 295 289 283 277 271 267 263 259 257 255 254 252 251 249 247 245 243 242 239 236 233 231 230 228 226 224 223 223 222 221 220 220 221 222 221 221 221 221 221 221 221 221 221 221 221 223 223 224 224 225 224 224 225 225 226 227 227 227 227 227 228 230 232 233 233 234 235 236 237 238 239 239 240 241 243 245 247 249 252 255 258 261 263 266 268 271 274
313 308 302 294 286 279 272 267 261 257 254 252 251 249 248 247 245 243 242 240 238 235 232 230 229 227 225 224 223 222 221 220 220 220 221 221 221 221 221 221 221 221 221 221 221 221 222 222 223 224 224 224 225 225 226 227 227 228 228 227 228 228 230 232 233 233 234 235 236 237 239 240 241 241 242 242 244 246 249 251 253 255 257 260 263 266 269 272
320 314 306 297 289 282 275 269 263 259 254 251 248 246 245 245 243 242 241 240 238 236 234 231 230 228 226 224 223 222 221 221 220 220 221 221 221 221 221 221 221 221 222 221 221 221 222 222 223 224 224 225 226 226 226 227 228 228 229 229 228 229 231 233 233 233 234 235 236 238 239 240 241 242 243 243 245 246 248 249 251 253 255 258 261 264 268 271
322 315 307 299 292 286 279 272 265 260 256 252 249 245 242 241 241 240 239 238 238 237 235 232 230 228 226 225 224 223 222 221 220 220 220 220 220 221 221 220 220 221 222 222 222 222 222 222 222 223 224 225 225 226 226 227 227 229 230 230 230 230 231 233 233 234 234 235 237 238 239 240 241 242 243 244 246 247 248 250 251 253 255 258 260 263 267 270
323 318 312 306 300 293 286 279 272 265 259 255 251 248 244 241 239 238 237 237 237 236 235 233 231 228 227 226 225 223 222 221 220 220 220 220 220 220 221 220 220 221 221 222 222 222 222 222 222 223 223 224 225 225 226 226 226 228 229 231 231 231 232 233 234 234 235 236 237 239 239 240 241 242 244 245 246 247 249 251 252 254 256 258 260 262 265 268
326 322 317 311 305 298 291 284 277 270 263 257 251 248 246 243 240 238 235 234 234 235 235 234 232 230 228 227 226 224 223 222 220 219 219 220 220 220 220 220 220 220 221 222 222 222 222 223 223 223 223 223 224 225 226 226 226 226 227 229 231 231 231 233 234 234 234 236 238 239 239 240 241 242 244 245 247 248 249 251 252 254 255 257 259 262 265 267
328 324 320 314 308 301 294 287 279 271 264 258 252 247 243 241 240 239 236 234 233 233 233 233 232 231 229 228 227 225 224 222 221 220 219 219 219 219 220 220 220 220 220 221 222 223 223 224 224 224 223 223 224 225 225 225 225 226 226 227 229 230 231 232 234 234 235 236 238 239 240 241 241 243 244 245 247 248 249 250 252 253 255 257 260 262 265 268
330 327 323 319 314 308 300 292 282 273 265 259 252 247 242 239 237 236 236 235 233 233 232 231 231 230 229 228 227 226 225 223 222 220 219 219 219 219 219 219 220 220 220 221 222 223 223 224 224 224 223 223 223 224 225 225 225 225 226 226 228 230 230 231 233 234 235 236 238 239 241 242 243 243 245 246 247 248 249 250 251 253 255 257 260 262 265 268
333 330 327 324 321 316 309 298 287 277 268 260 253 248 243 238 235 233 233 233 233 233 232 231 230 230 229 228 227 226 226 224 223 222 220 219 219 219 219 219 219 219 220 221 221 222 223 224 224 224 223 223 223 224 224 224 224 225 226 226 227 229 230 231 232 233 234 236 237 239 240 242 243 244 246 247 248 249 250 251 253 255 257 259 261 263 266 268
335 334 332 331 329 324 317 306 293 281 271 262 254 248 243 239 235 232 230 230 231 232 231 231 230 230 229 228 227 227 226 225 224 223 221 220 219 219 219 219 219 219 220 220 221 222 223 223 223 223 223 223 223 223 223 223 224 225 226 226 227 228 229 230 232 233 234 235 237 238 239 241 243 244 246 247 249 250 252 253 255 257 259 262 264 266 268 271
338 338 338 337 335 332 324 314 300 287 275 264 255 248 243 239 235 232 229 228 228 229 229 230 230 230 229 228 227 226 226 225 224 223 222 221 220 219 219 219 219 219 219 220 220 221 222 223 222 222 223 223 224 224 224 223 224 225 226 227 227 228 229 230 231 232 233 235 236 238 239 240 242 243 245 247 248 250 251 252 254 256 257 260 262 265 268 272
341 343 343 342 340 336 330 320 308 295 280 267 256 248 242 238 235 232 229 227 226 226 226 228 229 229 229 229 228 227 226 225 224 224 223 222 221 220 219 219 219 218 219 220 220 221 222 223 222 222 222 223 224 224 224 224 225 226 226 227 228 228 229 229 230 231 232 233 235 237 238 239 240 242 244 245 247 249 250 252 253 254 255 257 258 260 262 265
344 346 347 346 343 339 333 325 315 303 289 273 259 248 241 237 234 231 229 227 225 224 224 225 226 227 228 229 229 228 227 226 225 224 223 223 222 221 220 219 219 218 219 219 220 221 222 222 222 222 222 223 224 224 224 225 226 226 227 227 228 228 229 229 230 230 231 233 234 235 237 238 239 240 242 244 246 248 250 251 252 253 255 256 257 257 258 258
345 347 349 349 346 342 336 330 323 312 299 282 264 250 241 234 231 230 228 226 224 223 222 223 224 225 226 227 228 228 227 227 226 225 224 223 223 222 221 221 220 219 219 219 220 221 222 222 222 222 223 223 224 224 224 225 226 227 227 226 227 228 228 229 229 230 230 231 233 234 235 236 237 238 240 242 244 246 248 249 251 252 254 255 257 258 260 260
347 349 351 352 349 345 340 335 330 322 309 292 272 255 242 233 228 227 226 225 223 222 221 221 222 223 224 225 226 227 227 227 226 226 225 224 223 223 223 222 221 220 220 219 219 221 222 222 222 222 223 223 224 224 224 225 226 227 227 226 226 226 227 227 228 229 230 230 231 232 234 234 235 236 238 240 242 244 246 248 250 251 252 254 255 257 259 259
348 351 353 353 351 348 345 340 336 331 319 303 282 261 246 234 226 224 223 222 222 221 220 220 220 220 221 223 224 225 226 226 226 226 225 225 224 223 223 223 222 221 220 219 219 220 221 221 221 222 222 223 223 223 224 225 226 227 226 226 225 225 225 225 225 226 228 229 229 230 231 232 233 235 237 238 240 241 243 245 248 249 250 251 253 254 255 256
350 353 355 355 353 350 348 343 340 336 329 313 293 270 252 236 225 221 220 219 220 219 219 218 218 218 219 220 221 223 224 224 225 224 224 224 224 224 223 223 223 222 221 220 219 220 221 221 221 222 222 223 223 223 224 224 225 226 226 226 226 226 225 225 225 225 227 228 229 229 230 230 231 233 234 236 237 239 241 243 245 246 248 249 250 251 251 253
351 354 356 356 355 352 349 347 344 341 336 324 304 281 258 239 224 218 217 217 217 217 217 216 216 216 217 217 219 220 221 222 223 223 223 223 223 223 223 223 223 223 221 220 219 219 220 221 221 222 222 223 223 223 224 224 225 225 225 225 225 226 226 225 225 226 228 230 231 231 231 231 231 231 233 234 235 237 239 240 242 243 245 245 246 247 247 248
351 355 356 357 357 354 351 349 346 344 342 334 317 294 266 242 225 215 213 214 214 215 215 215 215 214 215 215 216 217 219 220 221 221 221 221 221 221 222 222 223 223 221 220 219 219 220 221 221 222 222 223 223 223 224 224 224 225 224 224 225 225 225 225 225 226 228 231 232 233 232 232 232 232 233 234 234 235 237 238 239 240 241 242 243 243 243 244
353 355 356 358 359 357 353 350 348 346 345 341 327 305 277 247 228 216 211 211 212 213 213 214 213 213 213 213 213 214 215 217 218 219 219 220 220 220 220 220 221 222 221 220 219 219 219 220 221 221 222 223 223 223 224 224 225 225 224 224 224 225 225 225 225 226 227 229 231 232 232 233 233 233 233 233 233 234 235 236 237 237 238 239 240 241 241 241
354 355 356 358 359 358 356 353 350 348 346 344 334 315 285 252 230 219 213 210 210 210 211 212 212 212 212 212 212 213 213 214 215 216 217 218 218 219 219 219 220 221 221 220 219 218 218 219 220 221 222 222 222 223 224 224 225 225 224 224 225 225 225 225 225 226 226 228 229 230 231 232 233 233 233 233 233 234 234 235 235 236 236 236 237 238 239 240
354 356 357 360 360 359 358 355 352 349 346 344 339 323 293 258 233 220 216 212 209 209 209 210 211 211 212 211 212 212 213 213 214 214 214 215 216 217 217 218 218 219 220 219 218 218 218 218 219 220 221 222 222 223 223 224 224 225 225 225 225 225 225 225 225 226 226 227 228 228 229 230 232 233 233 232 232 233 233 234 234 234 235 235 235 236 237 238
355 356 358 1 1 360 357 356 355 353 349 346 341 330 302 267 239 222 215 213 211 210 209 209 210 211 212 212 212 212 213 214 214 214 214 214 214 215 216 216 217 218 219 218 218 217 217 217 218 219 220 221 222 222 223 224 224 225 225 225 225 225 225 225 225 226 227 227 228 228 229 229 230 232 232 232 232 232 232 232 233 233 233 234 234 235 236 237
355 356 358 1 3 2 358 356 356 357 355 349 342 333 314 277 248 227 216 213 212 211 211 211 210 210 211 211 211 212 213 214 215 215 215 215 214 214 214 215 216 217 217 217 217 216 216 217 217 219 220 221 222 222 223 223 224 224 225 225 225 225 225 225 225 225 226 227 227 228 228 229 229 230 232 233 233 232 232 232 232 232 232 232 233 234 234 235
355 356 358 1 4 4 2 359 358 358 358 354 345 336 321 291 258 237 221 214 212 211 211 211 211 211 211 211 210 210 212 213 214 215 216 216 216 216 215 215 215 216 216 217 216 215 215 216 217 218 219 221 222 222 223 223 224 224 225 225 225 225 225 225 225 225 225 226 226 227 227 228 229 229 231 233 234 233 233 233 233 232 231 231 232 232 233 233
355 355 358 1 3 5 5 3 2 1 1 358 351 340 326 304 270 246 231 219 214 213 212 211 211 211 211 211 211 210 210 211 213 214 215 216 217 218 218 218 217 216 216 216 216 215 215 215 216 217 218 220 221 222 223 223 224 224 225 225 225 225 225 225 225 225 225 225 225 226 226 227 227 228 228 230 232 233 233 233 233 233 232 231 231 231 231 231
354 355 357 360 2 5 6 5 5 5 5 2 356 346 331 313 286 257 240 228 219 215 214 213 212 211 211 211 212 212 211 211 212 213 214 215 216 216 218 219 220 220 219 217 216 215 215 216 216 216 217 219 220 221 222 223 224 224 225 225 226 226 226 225 226 226 226 226 225 225 226 226 226 227 227 228 230 231 232 232 233 233 232 232 232 232 231 231
354 355 357 359 1 4 6 6 7 7 8 6 1 352 339 320 298 272 250 236 226 220 217 216 215 214 212 212 212 212 212 212 213 213 214 214 215 215 216 218 219 221 222 221 219 217 216 216 216 217 218 219 220 221 222 223 223 224 225 225 226 226 226 226 226 226 226 226 225 225 225 226 226 226 226 227 228 230 231 232 232 232 232 232 232 232 232 231
354 355 357 358 1 3 4 5 7 8 9 9 6 359 347 330 308 285 263 247 235 226 221 219 217 216 215 214 214 214 213 213 214 214 214 215 215 215 215 216 217 219 220 222 222 221 220 218 218 218 218 219 220 222 222 223 223 224 225 226 226 226 226 226 226 226 226 226 226 225 225 226 226 226 226 226 227 228 230 231 232 232 232 232 232 232 232 232
353 354 356 358 360 2 3 4 5 8 10 10 9 6 357 342 321 295 273 257 244 234 227 223 220 219 218 216 215 216 215 215 214 215 216 216 216 216 216 216 216 217 218 219 221 222 222 221 220 219 219 219 221 222 223 224 225 225 225 226 227 227 227 227 227 227 227 227 226 226 226 226 226 226 226 226 226 227 229 230 232 232 233 233 232 232 232 232
352 354 356 357 359 1 2 3 4 7 10 10 9 9 6 357 339 313 284 264 251 241 235 229 224 222 220 219 217 217 217 217 216 216 216 217 217 218 218 218 218 218 218 218 219 219 220 221 221 220 220 220 221 222 223 224 225 226 226 227 227 228 228 228 228 228 228 228 227 227 226 226 226 226 226 226 226 226 228 229 231 232 233 233 233 233 233 233
352 353 355 357 358 360 1 2 3 6 9 11 10 10 8 5 354 333 303 276 258 246 240 236 231 226 223 221 220 219 219 218 218 218 217 217 218 218 218 219 220 220 220 220 219 219 219 219 220 220 220 220 221 221 223 224 225 225 226 227 228 228 229 229 230 230 229 229 228 228 227 227 227 227 226 226 226 226 227 228 229 231 232 233 233 233 233 233
352 353 354 356 357 359 359 0 1 4 8 10 11 11 10 9 3 350 325 296 273 256 246 240 237 233 228 224 223 222 221 221 221 221 220 219 219 219 219 219 220 221 222 222 222 221 220 220 219 219 220 220 220 221 222 223 224 224 225 226 227 228 229 230 230 230 230 230 230 229 229 228 228 228 227 227 227 226 226 227 228 229 231 232 232 232 232 232
352 353 354 355 356 357 358 359 360 2 6 8 9 10 11 11 9 2 348 320 288 268 256 247 241 238 234 230 226 224 223 223 223 223 223 222 221 220 220 220 220 221 222 222 223 223 222 222 221 220 220 221 221 221 222 223 223 224 224 225 226 227 227 229 230 230 231 231 231 230 230 229 229 229 228 228 227 227 227 227 228 228 229 230 231 232 232 232
Height
10884 10883 10883 10883 10883 10884 10885 10885 10886 10888 10889 10890 10892 10893 10895 10897 10898 10900 10903 10905 10907 10908 10910 10912 10914 10916 10918 10920 10922 10924 10926 10929 10931 10934 10936 10939 10943 10945 10947 10950 10953 10956 10959 10962 10965 10968 10972 10975 10977 10980 10983 10986 10989 10991 10994 10997 10999 11002 11004 11006 11008 11009 11011 11012 11014 11016 11017 11018 11019 11019 11020 11021 11021 11021 11021 11022 11023 11023 11024 11025 11025 11024 11023 11023 11022 11022 11022 11021
10879 10878 10878 10878 10878 10878 10879 10880 10881 10882 10883 10884 10886 10888 10890 10891 10893 10895 10897 10900 10902 10904 10906 10908 10910 10912 10914 10916 10919 10921 10923 10925 10928 10930 10933 10936 10939 10942 10944 10946 10949 10953 10956 10959 10962 10965 10968 10971 10974 10977 10980 10983 10986 10989 10992 10995 10997 11000 11002 11004 11006 11007 11009 11011 11013 11015 11016 11017 11017 11018 11019 11020 11020 11020 11020 11021 11022 11023 11024 11025 11024 11024 11023 11023 11022 11022 11022 11021
10874 10873 10873 10872 10872 10873 10873 10874 10874 10875 10877 10878 10880 10882 10884 10886 10888 10889 10891 10894 10897 10899 10901 10903 10905 10908 10910 10912 10915 10917 10919 10922 10925 10927 10929 10932 10935 10938 10941 10942 10945 10949 10952 10955 10958 10961 10965 10968 10971 10974 10977 10981 10983 10986 10990 10993 10995 10998 11000 11002 11004 11006 11007 11009 11011 11013 11014 11015 11016 11017 11018 11019 11020 11020 11019 11020 11021 11023 11024 11024 11024 11024 11023 11023 11022 11022 11022 11021
10869 10868 10868 10867 10867 10867 10867 10868 10868 10869 10870 10872 10873 10875 10877 10880 10882 10884 10886 10888 10891 10893 10896 10898 10900 10903 10905 10908 10910 10912 10915 10918 10921 10923 10925 10927 10931 10934 10937 10938 10942 10945 10948 10951 10955 10958 10962 10965 10968 10971 10975 10978 10981 10984 10987 10990 10993 10995 10998 11000 11002 11004 11006 11007 11009 11011 11012 11014 11015 11016 11017 11018 11019 11019 11018 11020 11021 11022 11023 11023 11024 11024 11023 11023 11022 11022 11022 11021
10862 10862 10862 10862 10861 10861 10861 10861 10862 10863 10864 10865 10866 10868 10870 10872 10875 10878 10880 10882 10885 10887 10890 10893 10895 10897 10900 10903 10905 10908 10910 10913 10916 10919 10922 10923 10926 10930 10932 10934 10937 10942 10945 10947 10951 10955 10959 10962 10965 10968 10971 10975 10979 10981 10984 10987 10990 10992 10995 10997 10999 11001 11003 11005 11007 11009 11010 11012 11014 11015 11017 11017 11017 11017 11018 11020 11021 11022 11022 11023 11023 11023 11023 11022 11022 11022 11022 11022
10856 10855 10855 10855 10855 10855 10855 10855 10855 10856 10857 10858 10859 10861 10862 10865 10868 10871 10873 10875 10878 10881 10884 10887 10890 10892 10894 10897 10900 10903 10905 10908 10911 10915 10917 10919 10922 10926 10928 10930 10933 10938 10941 10943 10947 10951 10955 10959 10962 10965 10969 10973 10976 10978 10981 10983 10986 10989 10992 10994 10996 10998 11001 11003 11005 11007 11009 11010 11012 11014 11015 11016 11016 11016 11017 11019 11020 11021 11021 11022 11022 11022 11022 11022 11022 11022 11022 11022
10850 10849 10848 10847 10847 10847 10848 10848 10849 10849 10850 10851 10852 10853 10855 10857 10860 10863 10866 10869 10871 10874 10877 10881 10883 10886 10888 10891 10894 10897 10900 10903 10906 10909 10912 10915 10918 10921 10924 10925 10929 10933 10937 10939 10943 10947 10951 10955 10959 10962 10966 10970 10973 10975 10977 10980 10982 10985 10988 10991 10993 10995 10998 11001 11003 11005 11007 11008 11010 11012 11013 11013 11014 11015 11016 11018 11019 11020 11020 11021 11021 11022 11021 11021 11022 11022 11022 11022
10844 10842 10841 10840 10839 10839 10839 10840 10841 10843 10843 10844 10845 10845 10846 10849 10851 10854 10858 10861 10864 10867 10870 10874 10876 10879 10882 10885 10888 10891 10894 10897 10900 10904 10906 10910 10913 10916 10919 10921 10924 10928 10932 10935 10938 10943 10947 10952 10956 10959 10963 10967 10969 10971 10974 10976 10979 10982 10985 10988 10991 10993 10996 10998 11001 11003 11005 11006 11008 11010 11011 11012 11013 11014 11015 11016 11018 11019 11019 11020 11021 11021 11021 11021 11021 11022 11022 11022
10838 10836 10834 10833 10832 10831 10830 10831 10832 10834 10836 10836 10837 10838 10838 10839 10842 10846 10849 10853 10856 10859 10863 10866 10869 10872 10875 10878 10881 10885 10888 10890 10894 10897 10901 10904 10907 10911 10914 10917 10920 10923 10927 10931 10934 10938 10943 10948 10952 10956 10960 10963 10965 10967 10970 10972 10975 10978 10982 10985 10988 10991 10993 10996 10998 11001 11003 11004 11006 11007 11009 11010 11011 11012 11014 11015 11016 11017 11018 11019 11020 11020 11020 11020 11021 11022 11022 11022
10830 10829 10827 10825 10823 10822 10822 10822 10823 10824 10826 10828 10828 10829 10829 10830 10832 10837 10841 10845 10848 10851 10855 10859 10862 10865 10868 10871 10875 10878 10881 10883 10887 10891 10894 10898 10901 10905 10909 10913 10915 10918 10923 10926 10930 10935 10940 10945 10949 10952 10955 10958 10960 10963 10965 10968 10971 10975 10979 10982 10985 10988 10991 10993 10996 10998 11000 11002 11004 11005 11006 11008 11009 11011 11012 11013 11015 11016 11017 11018 11019 11019 11019 11020 11020 11021 11021 11022
10822 10820 10818 10816 10814 10813 10813 10813 10813 10814 10816 10817 10818 10820 10820 10821 10823 10828 10832 10836 10839 10842 10846 10850 10853 10857 10860 10864 10868 10872 10874 10877 10880 10885 10888 10892 10896 10899 10903 10907 10911 10914 10918 10922 10927 10932 10936 10940 10943 10946 10950 10952 10955 10959 10962 10964 10968 10972 10975 10978 10982 10985 10988 10991 10993 10995 10997 10999 11001 11003 11004 11005 11007 11009 11010 11012 11013 11014 11016 11017 11018 11018 11019 11019 11019 11020 11021 11022
10813 10811 10809 10807 10805 10803 10802 10803 10804 10805 10805 10805 10807 10809 10811 10812 10814 10819 10823 10827 10830 10833 10837 10841 10844 10848 10852 10856 10861 10864 10867 10870 10874 10878 10882 10886 10889 10893 10897 10902 10906 10909 10913 10919 10924 10928 10931 10934 10938 10941 10945 10948 10951 10955 10957 10960 10965 10968 10971 10975 10978 10982 10985 10988 10990 10992 10994 10996 10998 11000 11001 11003 11004 11006 11008 11010 11011 11013 11014 11015 11016 11017 11018 11018 11018 11019 11020 11021
10803 10800 10798 10796 10795 10793 10792 10793 10794 10794 10794 10793 10794 10798 10801 10803 10805 10809 10813 10817 10819 10823 10827 10831 10836 10839 10843 10848 10852 10855 10859 10863 10867 10871 10875 10879 10883 10886 10891 10895 10900 10904 10908 10914 10919 10922 10925 10928 10932 10936 10939 10944 10948 10950 10952 10956 10961 10965 10968 10971 10975 10978 10982 10984 10986 10988 10991 10993 10995 10997 10998 11000 11002 11004 11006 11008 11009 11011 11012 11013 11014 11015 11016 11016 11017 11018 11019 11020
10792 10789 10787 10785 10784 10782 10781 10782 10783 10783 10783 10782 10784 10786 10790 10793 10795 10798 10803 10806 10809 10812 10817 10821 10826 10830 10835 10839 10842 10846 10851 10856 10859 10863 10868 10872 10876 10880 10884 10888 10894 10899 10903 10909 10914 10917 10919 10922 10927 10930 10935 10940 10943 10944 10947 10953 10957 10960 10964 10968 10971 10975 10978 10980 10983 10985 10987 10990 10992 10994 10996 10997 10999 11001 11004 11006 11007 11008 11010 11011 11012 11013 11014 11015 11016 11017 11018 11020
10781 10778 10776 10774 10773 10772 10770 10771 10772 10772 10771 10772 10774 10775 10778 10781 10785 10788 10792 10795 10798 10802 10806 10810 10816 10821 10826 10830 10833 10838 10844 10848 10852 10855 10860 10865 10869 10874 10878 10882 10887 10893 10898 10903 10907 10910 10913 10917 10921 10925 10931 10935 10937 10939 10944 10948 10952 10956 10960 10964 10967 10971 10974 10977 10978 10981 10983 10986 10989 10991 10993 10994 10996 10998 11000 11003 11004 11006 11007 11009 11009 11011 11012 11013 11014 11015 11017 11018
10772 10769 10766 10764 10763 10761 10760 10761 10762 10761 10760 10761 10763 10765 10766 10769 10773 10776 10780 10784 10787 10791 10795 10800 10805 10810 10816 10820 10824 10830 10836 10841 10844 10847 10851 10857 10862 10867 10872 10876 10880 10886 10892 10896 10900 10903 10906 10911 10916 10921 10926 10929 10931 10935 10939 10943 10947 10951 10955 10959 10963 10967 10971 10972 10973 10976 10979 10982 10985 10987 10989 10992 10993 10995 10997 10999 11001 11003 11004 11006 11007 11008 11010 11011 11013 11014 11015 11017
10763 10760 10757 10754 10753 10751 10750 10751 10751 10749 10748 10750 10752 10753 10755 10758 10761 10764 10767 10771 10775 10779 10784 10789 10794 10799 10805 10810 10815 10822 10828 10832 10835 10838 10843 10849 10854 10859 10864 10869 10873 10879 10884 10889 10893 10896 10900 10905 10910 10915 10919 10922 10926 10930 10935 10939 10941 10945 10950 10955 10959 10963 10966 10967 10968 10972 10976 10979 10981 10984 10986 10988 10990 10992 10994 10996 10998 11000 11001 11003 11005 11006 11008 11009 11011 11013 11014 11016
10756 10753 10750 10747 10744 10742 10741 10742 10741 10738 10737 10739 10741 10741 10743 10746 10748 10751 10755 10759 10763 10768 10772 10777 10783 10788 10795 10800 10805 10812 10818 10822 10826 10829 10834 10840 10846 10851 10856 10861 10866 10871 10876 10881 10886 10889 10893 10900 10905 10909 10913 10917 10921 10924 10928 10932 10935 10940 10946 10951 10955 10959 10961 10962 10964 10968 10972 10975 10977 10980 10982 10985 10987 10989 10991 10993 10995 10997 10999 11001 11002 11004 11006 11007 11009 11011 11013 11014
10748 10745 10742 10739 10735 10732 10731 10731 10730 10728 10727 10727 10728 10730 10731 10734 10736 10739 10742 10746 10751 10756 10761 10766 10771 10777 10783 10789 10795 10801 10807 10812 10816 10821 10826 10832 10837 10842 10847 10853 10859 10863 10868 10874 10879 10882 10887 10893 10899 10903 10905 10908 10913 10917 10922 10927 10932 10938 10942 10947 10951 10954 10956 10957 10959 10964 10968 10970 10973 10976 10979 10981 10984 10986 10989 10991 10992 10994 10996 10998 11000 11002 11003 11005 11006 11008 11010 11013
10739 10735 10732 10728 10724 10722 10720 10719 10717 10715 10714 10714 10715 10717 10718 10721 10724 10726 10730 10734 10739 10744 10749 10754 10759 10765 10772 10778 10784 10790 10796 10802 10808 10813 10817 10823 10828 10834 10839 10845 10851 10856 10861 10866 10871 10875 10880 10887 10891 10892 10895 10901 10907 10912 10919 10924 10929 10933 10937 10941 10945 10949 10951 10952 10955 10960 10963 10966 10970 10973 10976 10978 10980 10982 10985 10987 10988 10991 10993 10995 10997 10999 11000 11002 11004 11006 11008 11010
10730 10726 10722 10717 10713 10710 10708 10705 10702 10701 10700 10699 10700 10702 10704 10706 10709 10713 10716 10721 10726 10731 10736 10741 10746 10752 10760 10767 10772 10778 10785 10792 10798 10804 10809 10814 10820 10826 10831 10836 10842 10848 10853 10858 10864 10869 10875 10880 10881 10883 10891 10899 10904 10909 10915 10919 10924 10928 10932 10935 10939 10943 10946 10947 10951 10955 10958 10962 10967 10969 10971 10973 10975 10977 10979 10982 10984 10987 10989 10990 10993 10995 10997 11000 11002 11003 11006 11008
10721 10717 10712 10707 10701 10697 10693 10689 10686 10684 10683 10683 10684 10686 10689 10691 10694 10698 10703 10707 10712 10717 10722 10727 10733 10740 10748 10755 10761 10767 10774 10781 10788 10794 10799 10805 10811 10817 10822 10828 10834 10840 10845 10851 10857 10863 10868 10869 10871 10878 10887 10893 10898 10904 10909 10914 10919 10923 10926 10929 10933 10937 10940 10942 10946 10950 10954 10959 10962 10964 10966 10968 10970 10972 10974 10977 10980 10982 10984 10986 10989 10991 10994 10997 10999 11001 11003 11005
10711 10706 10701 10694 10687 10681 10676 10671 10668 10666 10665 10666 10667 10669 10672 10675 10679 10683 10689 10694 10698 10703 10708 10714 10721 10730 10738 10744 10749 10755 10762 10770 10777 10784 10790 10795 10801 10807 10813 10820 10826 10832 10838 10843 10849 10854 10857 10859 10864 10873 10881 10887 10892 10897 10902 10908 10914 10917 10920 10922 10925 10930 10935 10937 10941 10945 10951 10955 10956 10958 10961 10964 10966 10968 10970 10972 10975 10977 10979 10982 10985 10988 10991 10993 10996 10999 11001 11002
10701 10694 10688 10680 10673 10665 10658 10652 10649 10647 10647 10648 10649 10651 10655 10659 10663 10668 10674 10679 10683 10688 10695 10702 10710 10719 10727 10732 10737 10743 10751 10758 10765 10772 10780 10786 10792 10798 10805 10811 10818 10824 10830 10834 10839 10844 10848 10852 10860 10867 10874 10880 10885 10890 10897 10903 10907 10910 10913 10914 10918 10923 10929 10932 10936 10941 10946 10949 10950 10952 10956 10958 10961 10964 10966 10968 10970 10973 10975 10978 10981 10984 10987 10990 10993 10996 10998 11000
10690 10683 10675 10667 10658 10649 10642 10636 10632 10630 10629 10630 10631 10634 10637 10641 10646 10652 10658 10664 10668 10675 10681 10689 10698 10707 10713 10719 10724 10731 10740 10746 10753 10762 10770 10776 10783 10789 10796 10803 10810 10816 10821 10826 10831 10836 10841 10847 10854 10861 10868 10874 10878 10884 10890 10895 10900 10903 10905 10907 10910 10917 10924 10927 10931 10936 10941 10944 10945 10948 10951 10953 10957 10959 10961 10963 10965 10968 10971 10974 10977 10980 10984 10987 10990 10993 10996 10998
10679 10671 10662 10653 10643 10634 10627 10622 10618 10615 10614 10614 10615 10618 10621 10625 10630 10636 10643 10649 10655 10661 10668 10677 10685 10693 10699 10705 10712 10721 10728 10735 10743 10751 10759 10767 10774 10780 10787 10794 10801 10807 10813 10817 10823 10828 10834 10840 10847 10854 10861 10867 10872 10878 10883 10888 10892 10895 10897 10900 10905 10912 10918 10922 10926 10931 10935 10939 10941 10943 10946 10948 10952 10954 10956 10959 10961 10963 10966 10970 10974 10978 10981 10985 10988 10991 10993 10995
10669 10660 10649 10639 10629 10621 10614 10609 10605 10602 10601 10601 10602 10604 10607 10611 10616 10621 10628 10635 10640 10648 10656 10665 10672 10677 10685 10693 10702 10710 10717 10725 10733 10740 10748 10757 10765 10771 10778 10784 10791 10798 10804 10810 10815 10820 10826 10831 10839 10846 10853 10860 10866 10870 10875 10880 10884 10885 10887 10893 10900 10907 10912 10917 10921 10926 10930 10934 10936 10938 10941 10943 10947 10950 10952 10955 10957 10959 10963 10969 10973 10977 10980 10983 10986 10989 10991 10993
10660 10649 10637 10627 10618 10610 10603 10598 10594 10592 10590 10590 10591 10593 10595 10599 10603 10608 10615 10620 10626 10635 10644 10652 10658 10665 10673 10681 10689 10698 10706 10714 10722 10729 10739 10747 10754 10761 10768 10774 10782 10789 10795 10801 10806 10811 10815 10821 10829 10837 10845 10852 10857 10860 10866 10872 10875 10876 10880 10889 10896 10901 10907 10913 10918 10921 10925 10929 10931 10933 10936 10940 10944 10945 10947 10950 10953 10956 10962 10967 10972 10975 10977 10980 10983 10986 10989 10991
10651 10640 10627 10615 10607 10600 10594 10590 10586 10583 10582 10582 10582 10583 10585 10588 10592 10597 10602 10607 10614 10624 10632 10639 10646 10654 10662 10669 10676 10686 10695 10703 10711 10719 10728 10736 10744 10752 10758 10765 10774 10781 10787 10792 10797 10801 10805 10811 10820 10829 10837 10844 10847 10851 10858 10865 10866 10868 10876 10885 10891 10897 10904 10909 10912 10915 10920 10924 10925 10928 10931 10936 10940 10941 10943 10945 10948 10952 10958 10963 10967 10970 10973 10976 10979 10983 10986 10988
10643 10631 10618 10606 10598 10592 10587 10583 10579 10576 10575 10574 10574 10575 10576 10579 10582 10586 10591 10596 10604 10613 10620 10626 10634 10642 10650 10657 10665 10675 10684 10693 10701 10710 10718 10726 10734 10741 10748 10757 10765 10772 10778 10783 10788 10792 10796 10803 10814 10824 10831 10835 10838 10843 10852 10857 10859 10863 10872 10880 10887 10893 10899 10903 10907 10910 10915 10919 10920 10922 10926 10931 10935 10937 10938 10940 10943 10949 10954 10958 10962 10965 10968 10972 10975 10977 10980 10982
10635 10624 10613 10602 10593 10586 10581 10577 10574 10570 10569 10568 10568 10568 10569 10571 10574 10578 10582 10587 10595 10603 10609 10615 10623 10631 10639 10647 10656 10666 10675 10683 10691 10699 10708 10717 10724 10731 10739 10747 10755 10762 10768 10773 10779 10783 10788 10796 10807 10816 10822 10825 10828 10836 10844 10850 10853 10858 10867 10876 10883 10888 10893 10898 10902 10906 10911 10913 10914 10917 10921 10926 10931 10932 10933 10936 10940 10946 10950 10954 10957 10961 10964 10967 10970 10971 10974 10976
10629 10620 10610 10599 10589 10582 10577 10572 10569 10566 10563 10562 10562 10562 10563 10564 10567 10571 10575 10580 10587 10593 10598 10605 10613 10621 10629 10638 10646 10655 10663 10672 10680 10689 10698 10706 10714 10722 10731 10738 10746 10753 10759 10764 10771 10775 10780 10789 10799 10807 10811 10814 10821 10830 10837 10842 10846 10852 10861 10870 10877 10882 10888 10893 10897 10902 10905 10906 10908 10912 10915 10921 10926 10926 10928 10933 10938 10942 10945 10948 10952 10956 10960 10963 10965 10967 10970 10972
10624 10614 10604 10595 10586 10579 10573 10568 10565 10562 10559 10558 10557 10557 10558 10559 10562 10565 10569 10574 10579 10584 10590 10596 10604 10612 10620 10628 10636 10644 10652 10660 10669 10678 10687 10696 10704 10713 10721 10728 10736 10743 10748 10755 10762 10766 10772 10782 10790 10797 10801 10806 10815 10824 10830 10836 10840 10846 10855 10864 10870 10876 10882 10887 10892 10896 10897 10899 10903 10906 10910 10916 10920 10921 10924 10929 10934 10938 10941 10944 10948 10952 10955 10958 10960 10963 10965 10968
10620 10610 10600 10591 10583 10575 10569 10565 10561 10558 10556 10554 10553 10553 10554 10555 10557 10560 10564 10569 10573 10578 10583 10589 10596 10603 10610 10618 10625 10633 10641 10649 10658 10668 10676 10685 10693 10701 10709 10717 10724 10731 10738 10746 10753 10758 10765 10773 10780 10787 10793 10799 10807 10816 10822 10826 10831 10837 10846 10855 10861 10867 10873 10879 10884 10886 10887 10890 10895 10899 10904 10910 10915 10917 10920 10925 10930 10933 10936 10940 10943 10947 10950 10953 10956 10958 10961 10963
10618 10608 10598 10589 10580 10573 10567 10562 10558 10556 10553 10551 10550 10550 10551 10552 10554 10557 10560 10564 10567 10572 10577 10582 10588 10594 10600 10607 10615 10622 10630 10638 10647 10656 10665 10673 10682 10691 10699 10707 10714 10720 10728 10736 10744 10751 10757 10764 10771 10778 10784 10790 10798 10806 10811 10816 10822 10829 10838 10847 10854 10861 10867 10872 10876 10876 10876 10879 10885 10892 10898 10905 10910 10913 10915 10920 10925 10929 10932 10936 10939 10942 10945 10949 10951 10954 10957 10960
10615 10607 10598 10588 10579 10571 10565 10560 10556 10553 10551 10549 10548 10548 10548 10550 10551 10553 10556 10559 10563 10567 10572 10576 10581 10586 10593 10599 10606 10613 10620 10628 10636 10644 10653 10662 10670 10679 10688 10696 10703 10709 10718 10727 10736 10743 10749 10756 10763 10769 10775 10781 10789 10796 10801 10807 10813 10820 10830 10840 10847 10853 10858 10864 10869 10870 10869 10873 10880 10888 10894 10900 10904 10907 10910 10916 10921 10924 10928 10932 10935 10938 10941 10944 10947 10949 10952 10956
10612 10604 10596 10588 10579 10570 10563 10558 10554 10552 10550 10548 10547 10546 10547 10548 10549 10550 10553 10556 10559 10563 10567 10571 10576 10580 10586 10592 10598 10604 10611 10619 10626 10634 10642 10650 10658 10667 10676 10685 10692 10699 10707 10717 10725 10734 10741 10747 10754 10760 10766 10772 10780 10787 10792 10797 10804 10812 10822 10831 10836 10841 10848 10855 10861 10864 10866 10870 10877 10884 10890 10894 10898 10902 10907 10912 10916 10919 10924 10928 10931 10934 10936 10939 10942 10944 10948 10951
10610 10601 10594 10586 10578 10570 10563 10557 10553 10550 10548 10547 10546 10545 10545 10546 10547 10548 10550 10552 10556 10560 10563 10567 10571 10575 10580 10584 10590 10595 10602 10609 10617 10625 10633 10640 10648 10656 10665 10673 10681 10688 10697 10706 10715 10724 10731 10737 10744 10750 10756 10762 10770 10777 10782 10788 10796 10804 10813 10820 10826 10833 10841 10848 10854 10859 10863 10867 10872 10878 10884 10888 10893 10898 10903 10907 10911 10914 10919 10923 10926 10929 10932 10935 10937 10939 10943 10946
10610 10602 10593 10583 10575 10569 10563 10557 10552 10549 10547 10545 10545 10544 10544 10544 10546 10547 10548 10550 10553 10556 10560 10563 10567 10571 10575 10579 10584 10589 10595 10601 10608 10615 10623 10631 10639 10647 10655 10663 10670 10678 10686 10695 10704 10713 10720 10727 10733 10740 10746 10752 10760 10766 10772 10779 10788 10796 10803 10811 10818 10826 10833 10840 10847 10852 10855 10859 10866 10872 10877 10881 10887 10892 10896 10901 10905 10909 10913 10918 10921 10924 10927 10930 10932 10934 10938 10942
10611 10603 10594 10583 10574 10568 10562 10558 10553 10549 10546 10544 10544 10544 10543 10543 10544 10545 10547 10549 10551 10554 10557 10560 10563 10567 10571 10575 10580 10585 10591 10597 10602 10608 10614 10621 10629 10637 10645 10653 10660 10668 10676 10685 10694 10703 10710 10716 10722 10729 10736 10742 10749 10756 10763 10772 10779 10786 10794 10802 10810 10817 10825 10832 10838 10844 10848 10854 10860 10865 10871 10876 10880 10884 10889 10895 10899 10903 10907 10911 10915 10919 10922 10925 10927 10930 10933 10937
10611 10604 10595 10586 10576 10567 10561 10557 10554 10549 10546 10544 10543 10543 10543 10543 10543 10544 10546 10548 10550 10552 10554 10557 10561 10565 10569 10573 10578 10583 10588 10593 10598 10603 10609 10614 10620 10627 10635 10643 10650 10658 10666 10674 10684 10692 10699 10705 10712 10718 10725 10731 10739 10747 10756 10763 10770 10778 10786 10793 10801 10809 10816 10824 10831 10837 10843 10848 10854 10860 10865 10870 10873 10876 10882 10887 10891 10895 10900 10904 10909 10913 10916 10920 10922 10924 10928 10932
10610 10603 10596 10587 10578 10569 10562 10557 10553 10549 10547 10544 10542 10542 10542 10543 10543 10543 10545 10546 10548 10551 10553 10556 10559 10562 10566 10571 10576 10581 10585 10590 10595 10601 10606 10610 10615 10620 10626 10634 10641 10648 10655 10664 10673 10681 10689 10696 10702 10709 10715 10723 10731 10739 10747 10754 10761 10769 10776 10784 10792 10799 10807 10814 10822 10829 10835 10840 10847 10852 10857 10862 10866 10871 10875 10879 10883 10888 10892 10897 10901 10905 10909 10913 10915 10919 10923 10927
10607 10602 10595 10588 10580 10573 10565 10558 10553 10549 10547 10544 10542 10541 10541 10542 10542 10543 10544 10545 10547 10549 10551 10554 10557 10560 10564 10567 10572 10577 10581 10586 10591 10597 10603 10608 10613 10617 10622 10627 10633 10639 10646 10654 10662 10671 10679 10686 10692 10699 10707 10715 10723 10730 10738 10745 10753 10760 10767 10775 10782 10789 10797 10805 10813 10819 10824 10830 10837 10843 10849 10855 10861 10865 10868 10872 10876 10880 10885 10889 10894 10898 10902 10905 10909 10913 10917 10922
10607 10601 10595 10588 10582 10575 10567 10561 10556 10551 10548 10545 10543 10541 10540 10541 10541 10542 10543 10544 10545 10547 10549 10552 10554 10558 10561 10565 10569 10573 10577 10581 10586 10591 10597 10603 10609 10615 10620 10625 10630 10634 10639 10646 10654 10663 10670 10676 10683 10691 10698 10706 10713 10721 10729 10737 10745 10751 10758 10765 10772 10780 10788 10795 10802 10808 10814 10821 10828 10834 10841 10848 10853 10856 10861 10864 10868 10872 10877 10882 10886 10890 10894 10898 10902 10906 10910 10915
10606 10600 10594 10588 10582 10575 10568 10563 10557 10553 10549 10546 10543 10541 10540 10539 10540 10541 10542 10543 10544 10546 10547 10550 10552 10555 10558 10561 10565 10569 10573 10577 10581 10586 10592 10597 10603 10610 10616 10622 10628 10633 10637 10641 10648 10656 10663 10670 10677 10684 10690 10697 10705 10713 10720 10728 10736 10742 10748 10755 10762 10770 10777 10785 10791 10798 10804 10812 10820 10826 10833 10839 10843 10847 10852 10856 10860 10864 10869 10873 10877 10882 10887 10891 10894 10899 10903 10909
10605 10599 10593 10587 10581 10574 10569 10563 10558 10553 10549 10546 10544 10542 10540 10539 10539 10539 10540 10541 10543 10544 10546 10548 10550 10553 10556 10559 10562 10566 10570 10573 10577 10581 10586 10591 10596 10602 10608 10615 10621 10628 10634 10640 10646 10653 10659 10665 10672 10679 10685 10692 10698 10705 10711 10718 10726 10732 10738 10745 10751 10759 10767 10774 10780 10787 10794 10803 10810 10817 10824 10829 10833 10838 10843 10848 10853 10857 10860 10864 10869 10873 10878 10883 10887 10891 10897 10902
10604 10599 10593 10587 10580 10574 10568 10563 10559 10555 10550 10547 10544 10542 10540 10539 10538 10538 10539 10539 10541 10543 10544 10546 10548 10550 10553 10556 10559 10562 10566 10569 10573 10577 10581 10585 10590 10594 10600 10606 10612 10619 10626 10634 10642 10649 10656 10662 10668 10675 10681 10688 10694 10699 10705 10711 10717 10723 10729 10735 10741 10749 10756 10763 10769 10777 10785 10792 10800 10808 10814 10818 10823 10829 10835 10840 10845 10849 10853 10856 10860 10865 10870 10874 10879 10884 10890 10896
10603 10599 10593 10587 10581 10575 10569 10564 10560 10556 10551 10548 10545 10542 10540 10539 10538 10537 10537 10538 10539 10540 10542 10544 10546 10548 10550 10553 10556 10559 10562 10566 10569 10573 10577 10581 10585 10589 10594 10598 10603 10609 10615 10622 10631 10640 10648 10656 10663 10670 10676 10683 10688 10693 10698 10704 10710 10716 10721 10727 10733 10740 10747 10753 10759 10767 10774 10782 10790 10799 10804 10808 10814 10820 10826 10831 10837 10841 10845 10848 10852 10857 10862 10867 10872 10877 10882 10888
10603 10598 10592 10587 10581 10575 10570 10565 10560 10556 10552 10548 10545 10542 10540 10538 10537 10536 10536 10536 10537 10538 10539 10541 10543 10545 10547 10550 10553 10555 10558 10561 10565 10568 10571 10575 10580 10585 10589 10593 10597 10602 10606 10612 10619 10627 10635 10643 10652 10660 10667 10674 10680 10685 10690 10696 10702 10707 10713 10720 10726 10732 10738 10745 10751 10757 10764 10772 10781 10788 10793 10798 10804 10810 10816 10822 10827 10833 10838 10841 10845 10849 10854 10859 10865 10869 10875 10880
10603 10597 10592 10586 10580 10575 10569 10565 10560 10556 10553 10549 10546 10543 10540 10538 10537 10535 10535 10535 10535 10536 10537 10538 10540 10542 10544 10547 10549 10552 10554 10557 10560 10563 10566 10570 10574 10579 10584 10589 10593 10597 10601 10606 10611 10618 10624 10632 10639 10647 10654 10662 10668 10674 10679 10685 10690 10696 10703 10710 10717 10723 10729 10735 10742 10748 10754 10762 10770 10777 10783 10788 10793 10799 10806 10812 10818 10824 10829 10833 10838 10842 10846 10851 10857 10862 10867 10872
10602 10597 10591 10586 10580 10575 10570 10565 10561 10557 10553 10550 10547 10544 10541 10538 10536 10535 10534 10534 10534 10534 10535 10535 10537 10538 10541 10544 10546 10548 10551 10554 10556 10559 10562 10565 10569 10573 10577 10582 10586 10591 10596 10601 10606 10611 10617 10623 10630 10636 10643 10649 10656 10661 10667 10672 10677 10683 10691 10699 10706 10712 10718 10724 10731 10736 10742 10750 10758 10766 10772 10778 10783 10789 10797 10803 10809 10815 10820 10825 10830 10834 10838 10843 10848 10854 10859 10865
10601 10596 10591 10586 10581 10575 10570 10565 10561 10557 10553 10550 10547 10544 10542 10539 10537 10535 10534 10533 10533 10533 10533 10533 10534 10536 10537 10540 10542 10545 10547 10550 10552 10555 10558 10561 10564 10567 10571 10575 10579 10584 10588 10593 10598 10604 10610 10616 10621 10627 10633 10639 10645 10650 10655 10659 10664 10671 10679 10686 10692 10699 10705 10712 10718 10724 10731 10738 10745 10753 10760 10766 10772 10779 10786 10793 10799 10805 10811 10816 10821 10826 10830 10835 10840 10845 10851 10857